Simultaneous Nadir Overpasses (SNOs) Predictions

Prediction of SNOs between AQUA and NOAA-19 Satellite Orbit:

Table of predicted SNOs for the next 14.0 days since TLE Epoch: 12/17/2011
Index Date Time (AQUA) AQUA Lat,Lon NOAA-19 Lat,Lon Distance(km) Time Diff (sec)
1 12/19/2011 05:51:39 49.87, -54.29 49.87, -54.27 1.54 8
2 12/21/2011 09:49:22 -39.62, 63.29 -39.62, 63.29 0.64 63
3 12/23/2011 14:31:53 -45.71, -5.69 -45.71, -5.70 0.86 28
4 12/25/2011 19:14:22 -51.86, -74.23 -51.86, -74.22 0.68 7
5 12/27/2011 23:11:26 43.49, 43.78 43.49, 43.78 0.35 43




NCC Satellite Simultaneous Nadir Overpasses (SNOs) Prediction Service
